Terminal Aerodrome Forecast
Issued by NWS

Home | Current Version | Previous Version | Text Only | Print | Product List | Glossary On
Versions: 1 2 3 4 5 6 7 8 9 10 11 12 13 14 15 16 17 18 19 20 21 22 23 24 25 26 27 28 29 30 31 32 33 34
155
FTUS45 KBOI 171137
TAFBKE
TAF
KBKE 171137Z 1712/1812 VRB03KT 4SM BR BKN250
     FM171500 10012KT P6SM SCT100 OVC200
     FM180000 10015G25KT P6SM OVC050
     FM180600 10015G25KT 2SM -SN BR OVC015=

USA.gov is the U.S. government's official web portal to all federal, state and local government web resources and services.